Wind_Speed
9 9 10 11 11 12 12 13 14 14 14 13 12 10 9 9 9 10 11 10 7 5 4 4 4 5 6 6 5 5 5 4 3 2 2 4 7 7 8 9 9 9 7 7 8 7 6 5 5 4 3 4 2 1 2 2 3 4 4 3 1 2 3 3 3 4 1 5 8 8 6 5 7 7 6 5 4 7 7 6 7 6 7 10 15 20 22 20
7 7 9 10 10 10 11 12 13 14 14 13 12 10 9 9 9 10 11 10 8 5 4 4 4 4 5 5 4 4 4 3 3 3 3 5 6 6 7 9 9 9 7 7 7 7 6 4 5 4 4 3 1 1 1 1 3 3 3 1 3 4 5 4 4 5 2 4 8 8 5 3 6 8 7 5 5 8 6 6 7 8 11 14 18 20 21 19
6 6 8 9 9 10 11 12 12 13 14 13 12 11 10 9 10 11 11 11 8 5 3 4 4 4 4 4 4 4 3 2 1 1 3 6 7 7 7 9 9 9 7 7 7 7 4 3 4 3 4 2 1 1 1 1 3 2 3 0 6 5 5 6 4 5 4 3 6 8 5 3 6 7 7 4 4 6 4 6 7 9 13 16 19 19 19 18
6 6 7 8 8 9 11 12 12 13 14 13 12 11 11 10 10 11 12 12 8 4 3 3 4 3 3 3 3 3 3 3 3 3 3 5 8 8 7 8 9 9 8 7 7 6 4 3 4 3 5 2 2 0 1 2 2 2 3 3 7 3 3 5 4 3 2 1 4 7 5 5 7 6 6 4 3 3 2 5 5 9 16 18 20 19 18 17
5 6 7 7 8 9 11 12 12 13 13 13 12 11 11 11 11 11 13 12 8 4 2 3 3 2 2 3 4 5 4 4 4 3 4 6 9 10 8 7 8 8 8 8 6 6 5 3 4 4 5 2 1 1 3 4 2 1 4 6 6 3 3 5 3 2 2 2 3 6 4 6 7 4 5 4 2 4 2 4 5 9 16 19 20 18 17 17
6 6 7 7 8 10 11 12 12 12 13 13 12 11 11 11 11 12 13 12 7 3 1 2 3 2 2 3 6 7 3 1 6 5 5 8 8 8 8 7 7 7 8 7 6 5 5 4 5 4 4 2 2 2 4 3 2 1 5 6 5 4 4 5 4 3 3 3 4 4 3 6 6 3 4 5 3 5 4 5 6 10 16 18 19 18 16 16
6 6 7 8 9 10 11 11 11 12 12 12 12 12 12 12 12 12 13 11 6 2 1 3 3 3 4 5 6 6 2 4 6 6 7 7 8 7 7 7 7 7 7 8 7 6 4 3 4 5 5 2 3 4 4 3 1 3 5 6 5 5 5 4 5 4 4 3 4 3 3 5 5 2 3 5 3 3 3 7 9 12 16 17 17 16 15 14
7 8 9 10 10 11 11 11 11 11 12 12 12 13 13 13 13 11 11 9 5 2 3 3 3 3 5 8 7 6 5 6 5 6 6 4 6 7 7 7 7 7 7 8 8 5 3 2 4 5 5 3 4 4 3 2 2 5 5 5 4 5 4 3 4 5 5 4 4 4 3 4 4 1 2 4 4 4 6 9 11 13 16 16 16 15 15 13
10 10 10 11 11 11 11 10 10 11 12 13 13 15 15 14 11 8 7 5 4 5 6 5 5 4 4 7 7 6 6 7 5 5 3 2 5 7 7 6 7 8 8 9 8 6 4 2 4 5 5 4 4 3 2 1 3 5 4 4 4 4 3 3 4 4 4 4 3 4 1 0 3 3 1 3 5 6 8 11 13 15 16 15 15 14 14 13
12 12 12 12 12 12 11 10 10 11 12 13 14 16 15 11 7 4 4 6 7 8 9 8 7 5 4 6 8 5 7 7 5 4 2 3 4 6 7 7 7 8 9 8 9 6 3 3 4 5 5 3 3 2 3 3 4 5 4 5 4 4 4 3 4 3 3 4 3 4 3 1 3 4 1 2 6 8 9 12 13 15 15 14 14 14 13 13
14 14 13 13 13 12 11 11 11 11 12 13 15 15 12 9 7 5 7 9 9 9 9 9 8 6 5 5 6 2 8 6 5 3 2 4 5 6 8 9 8 8 9 8 9 6 3 1 3 5 4 2 2 1 3 4 4 5 4 4 4 4 4 3 3 3 2 2 3 4 6 4 4 3 3 5 8 9 10 12 14 15 15 14 14 13 12 12
15 15 14 14 13 13 12 11 10 11 12 12 14 14 11 8 7 7 8 9 9 8 7 7 6 6 4 3 2 4 8 5 4 2 2 5 7 8 9 9 8 8 8 7 7 7 4 1 4 6 4 4 2 1 3 3 3 4 2 2 3 5 4 3 2 2 1 1 2 2 5 7 7 3 5 8 9 9 10 12 13 15 15 14 14 13 12 11
16 15 15 15 14 13 12 11 10 10 10 11 13 13 11 8 7 7 7 6 6 6 6 5 5 5 1 2 3 7 7 3 3 1 1 4 6 9 11 11 11 11 9 6 5 8 6 3 4 6 5 6 1 2 2 2 2 3 2 3 1 5 3 4 2 1 1 2 1 3 4 6 8 6 6 9 10 10 11 12 13 14 14 14 13 12 11 11
17 16 16 15 15 14 13 11 10 10 9 11 12 13 12 8 5 5 5 5 4 4 5 4 4 4 1 2 5 6 5 3 3 2 2 5 5 7 10 12 13 14 13 8 6 9 6 3 5 5 4 5 1 3 5 3 3 2 1 2 1 0 3 5 3 1 1 2 0 4 4 2 6 7 7 8 10 11 11 12 12 13 14 14 13 12 11 11
17 17 16 16 16 15 13 12 10 9 9 10 12 13 12 9 5 3 3 3 2 3 5 4 4 2 1 4 5 5 5 3 3 5 6 7 7 7 9 12 13 13 14 10 9 8 4 2 5 5 2 2 2 5 4 3 3 2 2 2 1 2 2 5 4 3 1 1 2 4 3 1 5 5 8 9 9 11 11 11 12 13 14 13 13 12 11 11
17 17 16 16 16 15 14 13 10 9 9 10 12 13 13 12 7 1 3 3 0 6 6 4 2 2 3 4 5 3 4 4 4 7 8 9 5 5 9 11 11 12 12 10 9 7 3 3 5 5 2 3 4 4 3 4 4 2 2 1 1 2 1 3 4 2 3 2 3 5 5 1 4 3 6 8 9 11 11 11 12 13 14 13 13 12 11 10
17 17 17 16 15 15 14 13 10 9 8 9 12 13 13 13 9 3 3 3 5 10 7 3 1 2 2 4 5 4 5 5 7 9 10 9 6 7 10 9 8 9 9 8 7 5 4 4 4 4 5 5 3 4 5 5 3 3 1 1 0 3 4 1 3 3 2 4 3 5 6 2 4 3 4 7 10 12 12 12 12 12 13 13 12 11 10 10
17 17 16 16 15 15 14 12 11 8 8 9 11 13 13 12 9 4 3 4 10 10 6 2 5 3 2 7 6 4 6 6 9 11 11 10 8 8 8 6 7 9 9 7 6 7 6 6 6 5 5 5 4 6 6 3 3 1 1 2 2 3 3 3 3 2 2 4 4 5 6 4 3 4 3 6 10 12 12 12 12 12 12 12 11 10 10 10
17 17 16 16 16 15 13 12 10 7 6 7 9 12 11 9 7 1 1 9 10 7 3 5 8 2 3 9 7 4 5 8 10 10 11 10 9 8 5 5 8 10 10 8 9 10 8 6 7 6 6 6 5 7 5 4 5 5 6 6 6 6 2 3 3 3 3 5 5 5 5 4 4 5 4 6 10 11 12 12 11 12 12 12 11 10 10 10
17 17 16 16 16 16 14 11 9 7 6 5 7 10 8 7 4 2 4 12 8 6 4 3 7 4 2 8 7 4 4 8 10 9 11 11 10 8 6 6 8 10 9 7 7 9 7 6 8 8 6 4 4 5 7 5 6 7 8 7 6 6 2 3 2 2 3 5 3 3 5 5 4 6 6 6 9 11 12 13 12 12 12 12 11 11 10 9
18 17 17 16 16 16 14 11 8 6 5 4 4 6 6 7 5 3 8 9 6 6 7 6 8 8 5 6 7 5 5 8 10 11 11 10 10 9 8 8 8 8 7 5 4 5 6 7 10 8 1 0 2 5 7 7 7 8 8 7 6 4 1 4 1 1 1 4 1 1 6 6 6 6 7 7 8 11 15 15 14 14 13 12 12 11 10 9
20 18 18 16 15 16 15 12 8 5 4 4 3 3 4 5 5 6 9 8 7 8 7 7 10 10 8 9 9 7 6 8 11 13 13 11 12 10 8 9 9 5 6 6 4 5 7 10 12 6 2 2 6 6 9 9 9 9 6 7 5 1 2 3 2 2 1 3 3 3 6 5 5 7 8 9 8 10 14 16 15 15 14 13 12 12 11 10
20 20 19 17 15 15 14 12 7 4 3 4 3 3 4 5 6 8 8 9 8 6 6 8 10 9 10 11 10 9 9 8 11 14 15 14 13 10 8 9 8 5 7 8 8 6 6 6 7 4 3 6 7 7 9 9 8 8 6 7 4 1 1 1 3 4 2 2 4 6 7 5 5 7 9 11 10 8 9 12 14 15 15 14 13 12 12 11
20 20 19 18 16 14 15 12 6 4 4 5 6 6 6 6 7 8 7 9 6 3 5 8 9 8 10 9 9 13 10 7 9 13 17 16 12 10 8 9 8 6 7 9 9 9 7 0 3 1 4 7 8 8 9 8 7 8 8 8 4 1 3 3 3 5 3 3 2 7 8 3 5 7 8 11 12 10 9 11 13 15 15 15 14 12 12 12
20 21 20 19 17 14 14 11 4 5 5 5 6 8 7 5 6 7 6 8 5 5 5 8 8 7 10 9 9 11 8 7 8 10 17 17 12 9 7 6 7 7 8 9 8 9 8 1 2 4 5 7 9 8 9 8 6 7 8 8 7 4 3 2 4 4 4 2 1 5 6 1 5 5 6 8 11 11 11 12 15 17 17 16 15 14 13 12
21 21 21 20 19 15 12 6 4 8 7 5 7 7 6 4 5 6 5 6 3 6 6 8 8 8 10 10 11 10 7 8 8 10 15 15 11 8 6 6 6 6 5 7 6 6 5 2 4 7 7 8 9 9 9 8 8 6 3 3 5 4 4 4 4 4 5 2 3 2 6 3 3 5 5 7 10 11 11 11 14 16 18 18 17 16 14 14
20 21 21 20 19 17 12 6 9 10 6 6 8 8 6 3 4 5 4 5 3 4 6 7 6 8 9 10 14 10 3 9 11 11 14 14 13 10 7 7 6 4 3 5 5 4 5 6 6 7 7 8 9 8 7 9 9 3 4 2 3 3 4 4 5 5 4 2 2 2 3 5 1 4 6 8 9 9 10 10 11 14 17 19 19 18 16 15
19 20 21 20 18 18 15 12 11 8 7 9 8 8 6 3 2 3 5 5 2 4 4 6 4 7 8 8 14 8 2 9 10 10 13 13 13 10 9 7 6 5 7 7 3 5 5 7 6 7 7 7 5 1 1 8 8 1 3 2 3 4 5 4 5 3 2 4 2 2 1 5 2 5 6 8 8 8 10 11 12 14 15 17 19 19 18 16
20 19 20 21 19 17 16 14 11 8 9 9 9 9 7 4 1 3 6 4 3 4 4 7 6 8 8 8 13 9 3 5 3 7 14 14 13 9 6 5 5 4 8 9 6 2 3 2 1 5 6 3 1 4 1 8 6 3 3 4 4 4 5 4 5 3 3 5 3 2 3 5 1 3 5 7 7 8 11 12 12 13 15 16 17 18 18 17
21 20 20 21 19 17 16 14 10 8 7 8 10 9 7 5 3 5 6 2 3 4 5 7 7 9 11 10 10 11 9 4 4 10 12 11 14 11 5 3 6 6 6 9 10 6 2 3 1 5 6 3 3 1 2 5 3 6 7 6 5 5 4 4 4 3 5 4 1 3 4 5 2 2 4 4 4 6 8 9 10 13 15 15 17 18 18 17
21 20 20 20 19 18 16 12 9 7 7 8 10 10 8 6 4 6 4 1 2 5 7 8 7 8 12 11 8 10 10 6 9 12 10 8 11 11 7 5 6 6 7 7 9 9 9 7 4 4 5 3 2 4 3 4 7 8 6 5 5 4 3 4 3 4 6 1 2 3 4 4 3 1 3 3 3 4 5 8 10 14 15 15 15 17 18 17
21 19 20 19 18 17 14 11 10 8 10 10 11 12 9 6 6 7 4 3 2 6 6 6 9 9 11 11 8 9 10 8 10 11 8 8 9 9 9 7 6 7 7 6 6 7 8 6 4 5 6 8 7 5 4 6 8 7 4 4 5 3 3 5 4 4 4 1 3 2 2 3 3 1 2 1 3 3 3 4 8 12 15 16 14 15 16 17
21 20 19 18 16 15 13 13 11 9 12 12 13 12 8 7 7 7 6 4 1 3 3 5 8 8 9 9 8 9 9 8 10 11 9 9 7 8 10 9 7 7 4 3 4 5 6 6 7 7 6 11 11 5 4 5 6 6 5 4 6 4 4 6 4 3 3 2 3 1 2 3 2 1 1 2 3 2 2 3 4 7 11 15 16 15 15 16
20 19 19 15 13 12 11 12 10 10 14 15 12 10 9 10 6 4 8 6 3 3 3 5 7 7 8 9 7 10 9 7 10 10 9 9 7 7 10 10 11 9 5 4 3 3 4 3 10 9 5 11 13 6 4 4 5 6 4 4 6 4 4 5 4 3 3 1 2 2 2 4 2 2 2 3 5 4 3 3 4 5 6 8 13 17 16 15
18 17 16 12 10 9 10 11 9 11 17 17 11 9 10 10 6 4 6 5 4 5 5 4 5 7 9 8 7 9 7 5 11 10 8 9 8 7 8 9 12 10 7 5 2 3 6 1 8 6 2 8 11 5 4 5 4 4 3 5 5 3 3 4 4 4 5 4 3 3 3 3 2 2 4 4 4 5 5 5 5 7 7 7 10 13 17 19
16 14 11 7 6 9 10 11 10 12 19 17 10 9 10 8 5 3 2 0 2 5 6 6 7 8 9 8 8 10 6 3 10 10 7 9 9 8 8 7 11 12 9 6 2 3 6 2 8 6 3 6 7 4 5 5 2 3 4 4 1 3 4 4 3 3 5 6 3 1 4 4 2 3 4 3 3 5 6 5 5 6 7 8 9 10 15 20
16 10 4 4 8 10 10 12 11 15 20 16 10 9 8 7 4 1 1 2 1 3 6 7 6 6 8 8 8 11 9 6 9 8 7 9 8 8 11 8 9 13 13 9 4 2 4 2 7 6 5 5 4 4 5 4 4 3 3 2 3 0 3 3 3 3 4 6 2 1 4 5 3 2 4 4 3 5 6 4 5 6 6 7 7 8 10 14
18 8 2 5 9 8 8 11 13 18 18 12 10 9 7 5 3 1 1 0 1 3 7 7 4 4 7 7 8 11 10 8 9 8 7 7 5 7 11 10 10 14 15 13 6 2 4 2 6 5 3 6 6 6 5 4 5 5 3 2 3 3 3 3 4 4 4 5 3 1 1 5 4 1 1 2 2 4 6 4 4 4 5 5 6 7 8 10
16 5 1 6 6 3 3 8 15 17 14 9 10 9 6 6 4 2 3 2 3 4 6 6 3 3 5 5 4 9 11 9 8 8 7 6 5 7 9 9 10 13 15 13 7 2 4 4 3 6 4 5 7 7 6 6 6 5 4 3 4 5 3 1 3 4 4 5 4 2 2 3 2 2 3 2 3 3 4 4 3 3 3 3 3 4 6 7
11 3 0 4 4 5 8 11 12 12 11 8 8 5 3 5 6 5 5 4 5 4 4 4 3 4 5 5 3 5 8 8 7 7 6 6 6 6 9 9 8 9 12 12 8 3 4 5 2 6 6 5 6 5 4 4 5 6 6 5 5 3 3 3 4 4 5 6 5 4 5 2 3 3 2 3 4 2 2 2 3 3 2 2 1 1 1 3
7 3 1 3 2 9 10 8 8 8 8 7 7 5 2 3 4 5 6 5 6 6 4 5 5 4 3 4 4 3 5 6 7 7 5 7 7 6 8 10 8 9 10 10 9 6 5 5 4 5 6 5 4 3 1 3 3 4 5 5 5 5 5 5 5 4 3 6 5 5 7 2 4 2 2 4 3 2 2 1 2 3 2 0 0 1 1 2
7 3 2 2 4 8 5 5 6 6 7 5 4 5 3 2 5 6 6 6 7 7 5 6 7 6 5 6 5 3 4 6 7 8 6 7 9 5 6 9 10 12 10 8 9 7 2 4 5 4 3 1 5 5 1 2 3 5 5 5 4 5 6 6 6 3 3 5 4 5 8 3 4 3 3 3 1 1 1 1 1 2 1 0 1 2 3 3
8 5 2 2 4 7 4 5 5 5 7 4 2 4 4 4 7 7 6 8 8 7 7 6 7 8 7 7 6 5 6 6 6 8 7 7 7 2 6 10 11 12 10 7 8 7 2 4 5 3 2 2 4 4 2 1 4 6 6 5 5 6 6 6 7 5 4 6 4 5 8 2 3 3 3 4 3 3 3 3 1 1 1 1 1 2 3 4
8 5 3 4 1 7 5 4 3 5 7 5 4 7 7 6 8 8 7 8 7 6 7 7 7 8 7 6 6 7 6 6 7 9 7 6 3 4 6 11 12 11 10 7 8 10 6 4 4 4 4 5 5 4 4 4 6 7 4 3 5 7 6 6 6 4 6 9 7 7 7 1 4 5 4 4 4 5 6 4 3 2 2 1 1 2 3 4
7 3 3 2 1 6 5 3 3 4 5 6 7 8 7 6 8 8 7 8 8 7 7 6 6 7 6 6 7 8 7 6 6 6 6 6 3 4 5 11 13 12 8 3 7 12 8 5 5 6 6 5 4 3 3 3 5 5 4 4 6 8 7 6 6 5 7 8 6 7 8 3 3 6 5 3 4 5 6 6 5 3 2 2 2 3 3 3
6 2 1 1 2 5 5 2 4 5 3 4 6 6 7 7 6 7 7 7 7 8 9 7 6 6 7 8 8 9 10 9 7 5 5 7 4 3 4 10 12 10 4 2 9 11 5 5 7 7 7 5 3 1 2 2 4 3 4 6 6 7 7 6 6 6 5 6 6 8 8 7 5 1 2 2 4 5 5 6 6 4 3 3 3 3 3 3
5 3 2 2 1 4 4 2 3 4 2 2 3 3 7 8 5 6 7 6 4 6 8 8 8 8 8 9 10 10 10 11 9 7 8 8 3 4 5 8 9 6 4 7 12 10 4 6 8 8 7 4 2 2 2 3 5 3 3 5 5 5 6 8 8 5 4 5 7 3 2 6 8 6 4 2 3 4 4 5 5 4 3 3 3 3 3 3
4 2 2 3 3 2 2 0 2 3 3 4 3 3 6 8 6 5 5 5 4 5 6 7 9 9 7 6 7 8 10 10 10 10 10 8 4 4 7 8 7 7 8 10 11 7 5 7 8 9 7 3 1 2 2 3 4 3 4 5 4 5 7 8 10 7 5 7 8 5 4 7 8 7 5 3 2 4 3 3 4 3 3 4 3 3 4 3
4 3 1 2 4 4 4 4 5 5 4 4 4 6 7 8 7 4 2 4 6 5 4 6 6 6 5 5 5 7 7 6 8 9 8 7 7 6 7 7 7 9 10 10 8 5 5 4 7 8 7 4 4 4 4 4 4 4 5 5 5 6 7 7 9 9 7 9 11 8 9 11 9 6 3 1 2 3 1 3 4 3 3 4 4 4 4 3
3 3 3 4 6 6 6 6 5 5 4 3 4 6 7 8 6 2 2 5 5 4 3 4 2 2 3 3 6 7 2 4 4 3 2 4 6 6 6 6 7 9 11 10 8 5 4 3 6 7 6 5 5 5 5 6 5 6 6 5 5 7 7 7 8 8 7 9 10 8 10 9 4 0 1 2 1 3 4 4 4 4 3 4 5 5 4 3
2 3 3 6 5 4 4 5 5 5 4 5 5 3 5 6 3 3 4 7 6 3 1 3 5 4 3 4 6 3 4 7 8 7 6 6 5 3 3 3 4 8 11 9 8 7 6 4 6 7 7 6 6 7 6 6 6 7 7 7 8 8 7 6 6 5 6 8 7 6 8 6 2 4 3 3 3 4 5 5 4 3 3 4 5 4 4 3
3 2 3 4 4 2 3 4 4 5 4 2 1 1 3 4 2 5 5 5 5 4 2 6 7 5 3 4 3 4 9 10 11 11 10 9 8 7 5 3 3 6 8 8 7 7 7 6 6 7 7 5 7 7 6 6 7 7 5 7 9 9 8 7 6 5 7 7 6 5 4 1 4 3 3 3 4 5 4 3 3 3 3 4 4 3 3 3
Wind_Direction
40 34 32 32 30 25 20 19 17 16 15 14 17 21 24 20 16 9 3 358 350 331 299 273 262 263 260 260 258 264 276 283 298 277 259 242 214 209 206 200 196 192 183 178 187 188 188 197 203 231 238 235 266 275 281 310 284 261 244 235 133 96 74 54 51 69 174 146 128 143 161 150 144 152 153 158 141 126 127 118 124 98 81 111 126 135 141 144
35 28 26 27 26 20 15 13 11 10 11 12 12 16 18 16 13 8 1 354 348 329 291 261 253 253 251 255 252 253 265 277 306 304 256 223 204 200 200 191 186 195 188 179 191 187 191 210 212 232 255 247 219 257 301 330 273 283 279 235 73 52 66 48 36 46 26 126 130 141 145 149 150 152 165 172 148 145 133 121 136 119 109 122 132 138 142 147
26 25 24 24 21 13 9 7 5 4 6 8 8 11 11 11 9 5 0 353 347 327 283 249 244 244 246 244 239 242 247 254 290 286 237 208 193 186 189 182 178 188 183 180 192 196 214 232 213 242 277 274 58 305 347 351 274 323 295 279 73 60 78 63 42 44 31 110 143 141 131 139 146 154 166 177 153 156 139 121 140 139 132 137 141 144 147 151
19 26 25 20 13 6 5 2 359 360 0 4 6 6 7 7 6 4 0 354 347 326 270 235 230 235 236 221 221 205 197 208 178 194 219 196 189 183 177 176 179 181 178 187 191 199 222 214 211 272 285 275 79 208 69 34 305 354 326 30 67 61 85 64 43 52 59 147 157 144 146 143 146 165 164 166 153 140 144 131 134 147 146 147 149 151 152 155
22 33 22 12 4 0 359 357 356 356 357 1 2 4 5 4 3 1 358 355 349 331 255 217 212 215 207 197 185 161 185 201 146 168 191 171 181 183 183 183 183 182 182 187 185 194 205 207 234 269 282 294 71 192 77 49 309 48 38 49 56 25 56 61 53 70 107 142 158 158 160 133 142 181 174 172 118 63 69 120 118 143 152 152 152 154 155 159
32 30 15 3 355 353 353 353 354 353 356 358 359 2 0 360 359 357 356 354 352 343 234 188 182 180 172 172 168 168 214 135 114 144 155 153 166 172 185 191 189 188 179 176 177 191 195 218 248 280 294 307 14 20 73 74 289 41 80 69 48 34 54 65 71 95 136 147 157 163 145 135 155 180 182 192 120 57 50 106 118 138 151 152 152 156 158 162
26 12 359 352 347 347 349 351 353 354 356 355 356 356 355 354 350 350 351 350 360 14 135 152 161 160 157 155 152 166 181 78 111 139 134 145 158 162 179 185 188 186 175 174 180 188 193 230 272 314 304 304 22 24 73 106 1 31 85 85 62 59 69 77 80 97 122 130 134 152 166 169 183 143 161 196 137 88 95 115 124 136 147 151 153 158 159 162
7 355 348 344 344 346 349 352 355 357 356 353 353 351 349 344 339 343 344 350 19 60 109 128 141 136 150 149 150 166 141 103 125 139 127 139 154 162 177 185 189 182 180 185 189 199 205 257 309 316 314 10 10 19 70 140 84 54 81 98 87 78 75 90 89 90 103 108 125 158 186 182 193 169 152 183 138 112 124 126 131 139 148 153 156 158 158 161
5 356 351 349 348 350 353 357 359 359 357 354 351 349 346 340 336 339 345 11 66 85 94 97 94 105 142 154 176 189 132 120 134 132 129 135 153 168 176 193 197 183 187 193 198 207 223 289 349 334 326 352 344 23 62 288 61 63 90 109 107 99 79 93 102 88 92 95 127 159 162 50 206 212 164 161 150 129 134 137 137 144 152 156 157 159 159 161
11 5 0 356 354 354 357 0 1 1 357 355 354 353 352 351 354 5 37 74 93 91 89 78 76 85 110 157 204 198 129 138 136 125 157 161 175 189 184 194 198 189 195 201 202 204 240 306 5 336 308 305 333 38 48 0 49 83 110 111 104 108 95 93 104 97 100 86 88 136 127 338 225 213 168 163 163 143 141 143 142 149 155 158 158 159 161 161
17 12 5 1 356 355 358 1 4 3 359 358 358 359 5 13 32 72 88 92 92 86 78 65 67 64 84 162 233 166 129 143 137 142 207 185 185 194 201 202 188 190 200 207 206 202 231 317 341 316 306 301 308 83 72 43 72 105 130 131 125 134 114 103 103 95 161 99 59 135 153 180 209 201 168 175 167 151 150 148 148 154 154 159 159 158 163 163
18 13 7 3 358 355 356 359 4 3 0 360 359 5 16 27 56 84 90 89 84 78 65 54 51 42 73 176 278 114 138 142 134 159 232 194 189 185 197 197 183 195 208 216 209 200 220 274 320 315 334 319 294 125 88 75 103 125 181 206 151 169 134 88 100 60 224 164 44 177 178 182 190 167 142 160 163 157 157 154 155 157 156 160 161 160 164 166
14 11 6 2 357 354 353 356 2 3 1 359 360 9 18 34 70 90 91 86 78 61 47 41 33 25 22 178 104 130 148 138 138 132 164 180 191 184 181 176 179 195 194 206 206 195 219 260 308 322 324 307 352 134 179 122 155 168 234 292 218 183 132 80 96 33 217 153 21 252 228 183 169 151 135 151 162 162 160 161 161 160 161 164 165 166 167 170
8 7 3 359 354 351 349 351 357 0 359 357 357 6 14 27 64 98 103 103 96 40 19 11 18 19 355 117 127 157 161 156 153 128 131 142 151 165 166 166 174 187 183 181 188 192 215 255 287 297 281 291 37 164 206 177 197 227 272 273 290 343 87 84 65 346 190 137 228 251 265 163 142 142 146 155 164 166 167 166 165 163 165 167 169 171 170 174
4 3 0 356 352 347 344 345 350 356 355 353 353 359 5 8 25 110 135 128 116 9 353 340 359 355 238 136 143 180 172 182 168 142 139 126 122 136 152 165 171 176 177 174 179 190 213 256 273 275 230 239 217 207 224 215 213 249 277 234 33 15 99 102 66 3 4 101 205 238 272 166 138 136 145 160 171 173 175 169 168 167 166 169 172 175 175 174
360 360 358 355 350 345 341 339 343 349 349 350 348 350 354 353 359 36 194 180 299 338 332 311 328 288 258 139 140 177 159 175 178 162 156 140 133 141 143 151 160 166 165 167 178 189 223 247 267 277 241 213 218 231 251 238 209 186 264 303 21 344 22 112 99 52 348 303 213 217 261 210 127 124 135 157 176 180 181 173 170 168 167 172 174 176 178 176
356 356 356 354 349 344 339 334 335 341 342 344 344 345 346 343 344 332 213 219 319 325 315 295 190 223 258 136 148 159 145 168 177 171 168 155 146 143 139 137 150 158 155 162 176 188 214 225 240 246 232 227 229 250 248 239 214 160 203 276 290 329 338 18 102 78 330 283 243 222 257 284 126 134 135 160 177 185 185 176 172 171 171 175 177 179 178 179
353 353 354 352 348 344 340 332 329 332 335 336 339 342 342 341 338 325 212 296 324 310 293 222 186 211 177 164 167 142 142 168 172 173 176 167 150 141 140 141 150 156 161 174 187 196 207 213 232 247 229 220 219 240 250 298 343 25 334 311 311 314 340 7 39 51 315 271 264 245 256 264 163 145 136 168 179 187 189 181 175 175 177 178 182 185 180 181
349 350 351 351 348 344 341 334 325 325 327 329 339 340 339 341 336 250 254 325 312 281 280 173 196 276 103 153 159 130 139 158 162 170 178 175 162 153 149 144 157 170 177 184 186 196 214 216 223 241 238 226 218 241 276 336 326 320 315 311 317 311 338 25 28 35 332 280 263 263 268 271 219 172 153 167 178 191 196 189 183 182 184 185 186 189 185 186
344 344 346 349 348 344 342 337 326 319 317 318 340 338 332 335 321 155 338 315 283 266 304 194 218 280 110 152 164 163 147 154 161 169 178 178 167 164 167 159 170 187 195 198 180 187 222 236 231 239 247 232 204 244 281 300 290 292 295 293 298 300 343 68 74 63 326 285 275 287 286 278 242 198 169 165 177 192 201 196 191 190 191 192 191 190 187 189
337 338 340 343 346 344 340 338 327 313 306 301 334 333 334 347 334 349 338 305 263 272 277 244 237 241 212 168 168 177 161 161 165 170 181 178 172 176 170 176 191 191 194 206 170 169 214 240 244 245 267 336 233 260 267 270 270 268 277 284 279 283 28 87 83 81 296 278 301 321 283 264 239 216 186 181 190 197 201 200 197 195 195 198 198 195 191 190
332 333 335 336 341 342 338 336 323 301 290 277 301 312 316 339 325 331 329 298 280 278 259 233 230 227 215 195 187 191 186 176 164 172 185 176 186 196 170 185 214 188 166 192 194 185 212 238 245 235 113 235 256 265 256 253 259 258 261 269 271 288 88 113 149 149 166 274 317 334 294 268 228 221 201 196 204 204 204 205 203 200 199 203 204 202 198 194
327 329 330 331 335 338 338 332 313 287 269 253 249 250 272 298 313 329 318 290 284 270 238 221 222 219 210 210 205 194 194 191 171 176 187 183 195 208 185 196 219 187 169 200 217 217 215 232 252 244 195 235 244 237 244 248 247 250 252 258 269 74 285 278 157 165 189 267 309 312 289 262 213 214 211 204 205 205 208 212 212 210 208 208 206 203 202 199
322 324 325 327 329 334 337 329 301 275 267 249 240 235 254 282 312 333 310 282 277 242 227 209 207 213 203 202 197 192 197 204 187 180 185 191 195 201 208 214 217 209 200 211 225 242 249 163 59 283 222 234 242 225 230 242 237 235 236 250 274 274 279 309 130 160 202 200 267 299 282 235 185 204 209 199 200 206 211 215 217 217 215 214 212 208 206 203
317 318 319 322 324 330 336 331 301 283 284 272 256 239 247 272 310 332 303 276 251 185 197 195 196 204 195 189 181 187 200 201 197 181 181 194 193 183 203 216 220 222 206 209 225 245 256 214 151 239 233 231 244 236 225 233 249 235 217 233 265 279 273 259 159 189 246 198 131 310 305 91 141 189 204 188 193 205 213 217 217 215 215 216 218 215 211 208
312 313 313 316 319 325 335 337 298 302 299 276 255 233 235 265 308 326 299 270 225 156 165 181 185 180 182 185 170 179 206 188 187 182 179 193 195 192 201 186 216 242 198 201 228 248 249 196 214 243 241 230 239 244 225 222 251 249 173 198 252 266 256 223 207 243 293 359 96 306 314 339 119 152 170 175 189 202 209 219 219 214 213 213 217 217 213 211
310 309 307 310 315 320 326 308 295 310 303 260 239 220 224 252 306 322 284 253 210 145 151 163 175 172 171 174 170 183 191 146 165 182 183 189 187 203 223 176 195 229 172 201 223 218 214 200 209 228 236 231 231 240 215 211 246 268 88 134 208 225 229 218 236 266 311 351 164 186 294 299 321 104 132 162 188 207 212 217 220 216 213 211 214 216 215 213
311 308 304 304 308 314 316 305 305 311 271 245 224 208 212 227 296 294 268 260 162 128 144 143 153 166 158 167 182 197 92 134 168 173 176 191 185 201 232 208 205 182 170 220 217 129 169 202 204 212 227 227 222 304 146 213 239 39 87 185 195 216 212 207 246 272 306 289 253 143 280 289 326 91 127 159 178 210 224 225 221 216 214 213 213 214 215 213
312 309 303 299 300 304 304 300 303 296 262 236 212 202 196 190 233 242 259 272 155 150 147 140 150 165 157 166 190 204 177 163 187 143 163 191 190 200 247 238 242 202 181 230 254 114 130 158 205 229 237 246 1 16 306 234 234 115 149 187 169 193 195 210 250 270 270 273 301 21 319 306 340 115 147 172 186 205 221 227 227 221 215 214 215 215 214 211
313 311 303 298 297 297 298 297 292 281 254 222 208 194 183 190 219 232 237 235 167 149 135 150 159 166 170 174 188 199 197 172 124 143 163 185 191 204 257 255 246 245 210 228 253 264 215 132 179 252 258 317 8 48 221 234 173 141 177 185 169 181 192 223 259 284 268 258 18 11 329 312 313 99 120 153 185 202 205 209 223 228 220 214 214 215 214 210
314 310 302 297 294 292 297 298 288 262 215 205 195 178 183 200 229 244 220 159 185 152 147 169 164 164 183 192 187 185 197 185 148 161 170 174 189 202 220 219 217 229 227 222 232 237 219 197 200 221 225 232 184 143 144 168 163 169 188 190 187 184 202 237 246 262 267 272 56 2 329 291 271 39 62 101 138 179 190 192 204 215 218 214 212 213 214 212
314 308 300 295 290 287 286 279 271 241 200 193 181 178 195 206 220 239 198 129 194 173 163 173 171 178 190 202 202 180 191 195 174 185 190 181 191 197 207 211 192 205 221 208 201 205 200 193 174 169 188 204 197 154 141 168 180 198 203 202 224 218 224 252 249 247 261 50 56 357 324 279 263 330 354 58 137 163 171 190 197 200 211 215 213 214 213 213
317 308 297 292 288 283 277 269 260 227 198 187 180 187 212 224 219 225 205 187 135 144 156 155 167 185 190 200 206 184 190 192 182 197 202 194 203 199 206 218 220 235 244 199 203 189 168 153 165 178 185 203 214 202 174 183 195 211 206 213 248 261 258 262 262 254 262 95 82 19 292 269 251 201 345 56 91 107 140 192 198 194 210 214 208 207 209 213
320 309 300 295 288 279 271 263 247 211 192 184 186 198 215 225 221 214 216 206 113 109 151 149 164 189 202 213 196 178 198 195 179 195 198 197 219 210 203 212 222 243 259 233 238 219 213 168 171 182 167 188 209 235 233 210 204 215 222 236 258 283 280 280 291 290 303 24 143 185 242 287 300 163 147 109 106 106 118 158 185 190 202 206 201 201 204 213
323 313 304 296 282 271 264 252 230 197 186 184 194 208 210 221 221 218 225 206 161 170 162 161 200 206 206 216 197 188 218 205 181 196 204 201 217 215 206 203 203 218 238 230 197 209 257 247 149 161 104 180 200 220 238 234 212 200 228 246 269 307 282 280 296 307 318 298 232 197 243 296 324 156 153 150 153 153 142 140 167 187 185 188 200 203 206 214
330 320 306 287 268 269 260 243 224 193 184 187 204 214 213 224 229 223 231 102 204 198 180 187 215 222 208 198 193 196 218 215 186 195 208 212 223 220 215 205 192 202 222 227 173 192 240 153 128 157 178 193 214 206 203 241 236 174 215 241 327 349 287 279 274 268 285 276 250 213 268 270 227 191 164 167 196 176 165 160 163 175 182 189 199 201 203 211
339 335 305 275 281 279 258 236 220 191 186 196 215 219 219 223 227 264 54 49 269 218 218 212 200 219 218 202 195 190 190 193 191 199 205 203 215 217 213 212 198 202 215 230 237 227 246 152 125 170 185 171 218 221 192 240 271 228 221 182 106 8 269 275 270 245 251 261 240 188 287 296 280 217 157 166 183 156 154 159 157 164 181 194 194 190 193 202
342 349 340 303 296 285 259 228 199 183 186 205 224 225 229 217 197 207 123 119 276 223 232 233 200 211 228 222 200 178 179 186 185 201 212 192 189 200 206 208 202 206 215 227 232 189 235 230 126 161 181 141 172 212 198 205 250 277 304 147 195 254 237 210 259 271 263 273 279 172 267 283 266 264 105 145 131 130 142 149 159 166 173 183 186 183 183 190
340 352 4 327 323 308 233 184 171 178 190 210 224 220 226 223 207 203 198 221 259 239 239 242 229 221 229 236 203 164 180 197 186 195 212 199 178 178 198 206 198 203 210 216 221 177 219 254 145 152 162 146 172 205 212 193 201 245 266 219 234 282 298 240 253 271 276 285 295 287 262 247 221 359 358 61 96 109 137 151 168 166 154 164 170 173 180 189
341 316 264 358 20 95 126 142 158 188 200 212 227 215 200 223 223 210 208 227 245 244 255 253 234 223 217 228 240 178 190 208 202 204 205 190 184 177 189 203 194 190 197 204 213 200 200 240 206 145 159 186 189 196 231 225 200 212 227 220 218 242 280 278 247 243 273 289 289 283 282 293 82 42 22 92 102 105 124 151 163 159 158 153 137 150 185 203
337 271 105 29 95 115 124 154 178 203 208 217 237 232 197 230 237 211 199 220 243 245 268 274 257 253 241 228 227 190 195 212 208 217 212 190 209 211 187 197 190 166 175 195 204 206 204 221 212 164 179 200 161 128 319 301 269 246 241 239 231 224 244 262 247 220 247 280 288 287 285 313 78 69 71 92 102 112 125 177 159 148 165 164 57 269 286 269
332 281 58 27 165 135 143 209 197 208 224 225 239 239 221 235 249 237 214 215 233 234 239 258 256 258 260 247 244 221 216 222 209 216 222 205 220 224 168 184 188 171 175 195 192 188 211 230 216 190 194 161 99 99 41 315 285 268 265 273 275 255 251 260 269 271 257 265 285 289 281 299 81 83 83 97 121 118 153 253 179 130 123 30 329 311 298 285
328 310 339 341 180 167 216 232 192 211 232 228 255 240 224 230 236 237 229 222 226 228 226 237 244 243 245 244 249 245 228 230 224 220 226 221 223 200 137 169 186 185 191 195 176 162 176 228 215 194 178 136 115 126 152 217 248 243 241 255 270 273 276 280 290 307 290 268 266 263 267 282 91 106 108 127 169 202 225 234 220 176 128 139 277 301 302 287
319 297 282 325 215 190 230 250 210 219 217 215 241 227 217 234 238 232 231 224 222 228 230 235 237 235 239 243 246 243 225 223 227 221 228 236 201 94 144 178 189 197 201 197 174 170 187 212 199 202 206 188 178 186 187 197 230 246 245 232 251 265 272 273 276 278 271 276 280 270 272 281 132 153 142 154 187 209 219 210 199 208 184 179 248 271 289 296
318 270 225 305 220 204 242 296 301 267 216 211 229 224 213 218 224 232 249 241 229 237 243 238 234 232 233 236 238 238 233 236 232 215 228 239 182 116 181 193 196 206 214 223 174 172 188 207 192 216 229 213 215 217 202 213 223 236 244 225 236 249 247 254 268 257 257 275 280 267 275 296 139 150 145 173 208 219 220 205 195 203 209 224 258 271 275 291
314 295 205 202 183 218 240 273 281 276 245 216 224 220 222 219 202 210 241 246 229 236 249 247 236 232 228 226 229 229 226 230 233 229 240 235 194 129 176 192 200 210 220 211 182 175 189 208 202 234 253 254 282 42 68 299 261 237 234 223 228 244 246 251 260 262 273 279 267 258 267 287 296 256 165 192 221 235 233 214 201 200 215 243 257 264 265 270
298 325 353 317 244 222 209 183 249 266 281 257 236 208 226 232 208 187 211 230 226 229 244 245 236 236 227 221 227 228 222 222 225 236 246 240 203 102 145 187 202 199 184 196 190 182 199 202 197 225 242 257 323 59 113 259 270 275 257 232 225 232 242 251 256 276 322 287 271 286 287 278 288 294 298 296 251 252 249 226 209 201 213 236 248 254 258 258
294 339 345 313 295 242 217 49 342 313 270 247 252 245 235 233 226 206 198 210 219 220 237 231 220 230 237 229 233 231 221 217 219 225 235 236 217 151 159 187 198 178 179 194 188 192 224 200 183 205 214 190 127 168 183 226 254 266 253 245 237 225 234 252 261 274 291 272 277 322 327 285 283 290 306 337 303 280 265 224 206 196 208 220 231 243 248 249
315 320 303 289 285 287 302 317 318 293 255 232 241 240 238 235 228 223 219 224 213 207 241 242 210 218 243 239 239 236 223 225 224 217 220 227 224 205 180 182 186 181 190 193 182 209 253 193 167 196 199 167 162 178 190 214 232 240 238 239 237 235 238 250 264 272 271 270 278 291 289 282 283 290 308 17 315 291 241 185 191 201 217 221 228 234 234 245
329 319 321 301 277 270 279 275 271 268 238 206 225 226 234 244 240 239 267 249 233 190 214 264 286 298 283 238 226 230 257 342 296 248 237 232 221 214 202 192 180 183 197 196 178 198 245 194 174 198 205 188 184 184 190 209 227 237 243 241 235 244 248 245 257 268 263 266 274 280 283 280 273 261 138 153 224 237 201 191 197 210 226 227 230 232 223 223
315 308 318 306 283 251 252 249 249 262 241 212 216 212 221 233 260 325 273 247 264 274 277 326 332 323 278 205 202 219 3 345 312 307 307 278 262 267 245 216 189 187 193 192 184 192 206 188 178 204 223 210 192 201 207 211 229 242 250 252 241 241 248 247 255 262 261 268 268 263 276 281 129 123 157 180 199 222 215 203 198 201 212 220 225 223 204 184
317 294 291 295 283 233 237 242 228 240 246 219 219 256 249 239 308 320 275 225 236 255 337 343 328 310 248 188 158 1 342 320 302 299 292 277 277 280 270 267 255 218 195 185 189 192 189 185 184 212 238 213 179 203 221 221 239 249 250 253 246 241 245 251 258 260 258 266 269 268 289 1 114 154 199 193 201 224 224 205 202 200 200 218 224 212 187 168
Height
1534 1534 1533 1532 1531 1531 1530 1528 1528 1527 1526 1525 1524 1523 1522 1521 1520 1519 1518 1517 1516 1515 1515 1515 1515 1515 1515 1516 1516 1516 1516 1517 1517 1517 1518 1517 1518 1518 1518 1519 1520 1521 1521 1522 1523 1524 1524 1525 1525 1524 1524 1523 1523 1522 1521 1521 1520 1518 1515 1515 1517 1517 1519 1520 1518 1522 1523 1522 1523 1525 1525 1526 1528 1529 1530 1530 1530 1530 1531 1533 1534 1535 1536 1537 1539 1541 1543 1545
1535 1534 1533 1532 1532 1531 1530 1529 1528 1527 1526 1525 1524 1523 1522 1521 1520 1519 1518 1517 1516 1515 1515 1514 1514 1515 1515 1515 1516 1516 1516 1517 1517 1517 1517 1517 1517 1518 1518 1519 1520 1521 1522 1523 1524 1525 1525 1525 1525 1524 1524 1522 1521 1521 1520 1521 1519 1517 1515 1514 1519 1520 1519 1520 1519 1520 1520 1521 1522 1524 1525 1526 1527 1528 1529 1530 1530 1530 1530 1532 1534 1535 1537 1539 1540 1542 1544 1545
1535 1534 1534 1533 1532 1531 1530 1529 1528 1527 1526 1525 1524 1523 1522 1521 1520 1519 1518 1517 1516 1515 1514 1514 1514 1514 1515 1515 1516 1516 1516 1517 1517 1517 1517 1517 1518 1518 1519 1519 1520 1521 1522 1524 1525 1526 1526 1525 1525 1524 1523 1520 1520 1521 1520 1520 1518 1517 1517 1516 1520 1520 1519 1521 1521 1522 1522 1522 1521 1523 1526 1525 1526 1528 1529 1529 1529 1529 1529 1531 1533 1535 1537 1539 1541 1543 1544 1546
1535 1535 1534 1533 1532 1531 1530 1529 1528 1527 1526 1525 1524 1523 1522 1521 1520 1519 1518 1516 1515 1514 1514 1514 1514 1514 1515 1515 1516 1516 1516 1516 1517 1517 1516 1517 1518 1518 1519 1520 1520 1522 1523 1524 1525 1525 1525 1525 1525 1524 1523 1519 1519 1520 1518 1520 1519 1516 1518 1519 1520 1519 1520 1523 1523 1524 1524 1523 1522 1523 1525 1525 1527 1528 1528 1529 1530 1531 1529 1530 1532 1533 1536 1538 1541 1543 1545 1546
1535 1535 1534 1533 1532 1531 1530 1529 1528 1527 1526 1525 1523 1522 1522 1521 1520 1519 1517 1516 1515 1514 1514 1513 1513 1514 1514 1515 1516 1516 1516 1516 1516 1516 1516 1517 1517 1518 1519 1520 1521 1522 1523 1524 1525 1525 1525 1525 1525 1524 1521 1517 1517 1519 1518 1520 1519 1518 1520 1520 1521 1520 1522 1525 1524 1525 1525 1525 1524 1524 1524 1525 1527 1528 1528 1528 1530 1532 1530 1530 1532 1533 1536 1538 1540 1543 1545 1547
1536 1535 1534 1533 1532 1531 1530 1529 1528 1527 1525 1524 1523 1522 1521 1520 1519 1518 1517 1516 1515 1514 1514 1513 1513 1514 1514 1515 1515 1515 1516 1517 1516 1516 1517 1517 1517 1519 1519 1520 1521 1522 1523 1524 1525 1525 1525 1526 1524 1522 1519 1516 1516 1517 1519 1521 1519 1520 1522 1521 1522 1523 1523 1525 1525 1526 1526 1525 1525 1525 1525 1525 1527 1527 1528 1529 1530 1532 1531 1532 1533 1534 1537 1539 1541 1543 1545 1546
1536 1535 1534 1533 1532 1531 1530 1529 1527 1526 1525 1524 1523 1522 1521 1520 1519 1518 1517 1516 1515 1514 1514 1514 1514 1514 1514 1515 1515 1516 1516 1516 1516 1517 1517 1517 1518 1519 1520 1521 1521 1523 1524 1525 1526 1526 1526 1525 1524 1522 1518 1516 1517 1517 1519 1520 1518 1520 1523 1523 1524 1525 1525 1526 1526 1526 1526 1526 1526 1526 1526 1526 1526 1527 1528 1529 1530 1532 1533 1533 1534 1536 1538 1540 1541 1543 1545 1546
1536 1535 1534 1533 1531 1530 1529 1528 1527 1526 1525 1524 1522 1521 1520 1519 1518 1517 1516 1515 1515 1514 1514 1514 1514 1514 1514 1515 1515 1515 1515 1516 1517 1517 1517 1518 1518 1519 1520 1521 1522 1523 1524 1525 1526 1526 1526 1525 1524 1522 1519 1517 1518 1517 1518 1519 1519 1520 1524 1524 1525 1526 1526 1526 1526 1526 1526 1527 1527 1528 1526 1526 1527 1527 1528 1529 1530 1532 1533 1533 1535 1537 1538 1540 1542 1543 1545 1546
1536 1535 1533 1532 1531 1530 1529 1528 1527 1526 1524 1523 1522 1521 1519 1518 1517 1517 1516 1515 1515 1515 1515 1514 1514 1515 1515 1515 1515 1514 1515 1517 1517 1517 1518 1518 1518 1519 1520 1521 1522 1523 1524 1525 1526 1527 1526 1524 1524 1523 1520 1519 1518 1517 1517 1520 1522 1521 1523 1525 1525 1526 1526 1526 1526 1526 1527 1527 1527 1528 1527 1528 1528 1527 1528 1529 1531 1532 1533 1534 1535 1537 1539 1540 1542 1543 1545 1546
1536 1534 1533 1532 1531 1530 1529 1527 1526 1525 1524 1523 1521 1520 1518 1517 1516 1516 1516 1515 1515 1515 1515 1515 1515 1515 1515 1516 1514 1513 1516 1517 1517 1517 1518 1518 1519 1519 1520 1521 1522 1523 1525 1525 1526 1527 1526 1525 1525 1524 1522 1519 1518 1518 1518 1520 1523 1522 1523 1524 1525 1526 1526 1527 1527 1526 1527 1526 1527 1528 1530 1530 1528 1529 1531 1530 1530 1532 1533 1534 1535 1537 1539 1540 1542 1543 1545 1546
1536 1534 1533 1532 1530 1529 1528 1527 1526 1525 1524 1523 1521 1520 1518 1517 1516 1516 1516 1516 1516 1516 1516 1516 1516 1516 1516 1516 1513 1512 1516 1518 1517 1518 1518 1518 1519 1519 1521 1522 1522 1524 1525 1526 1526 1527 1527 1526 1526 1524 1522 1520 1518 1518 1519 1520 1522 1522 1523 1524 1524 1525 1526 1526 1526 1526 1526 1526 1527 1527 1529 1531 1529 1529 1532 1531 1530 1531 1533 1534 1536 1537 1539 1541 1542 1544 1545 1546
1535 1534 1533 1531 1530 1529 1528 1527 1526 1525 1524 1523 1521 1520 1519 1518 1517 1517 1516 1516 1516 1516 1516 1516 1516 1516 1516 1516 1514 1514 1517 1518 1517 1518 1518 1518 1518 1519 1520 1521 1522 1524 1525 1526 1526 1527 1527 1526 1526 1525 1522 1520 1519 1520 1522 1522 1522 1523 1523 1524 1524 1523 1525 1526 1525 1526 1525 1526 1525 1526 1531 1532 1529 1528 1528 1529 1530 1530 1532 1534 1535 1536 1539 1540 1542 1544 1545 1546
1535 1534 1532 1531 1530 1528 1527 1526 1525 1524 1523 1522 1521 1520 1519 1518 1518 1517 1517 1517 1517 1517 1517 1516 1516 1516 1516 1515 1515 1516 1517 1517 1518 1518 1518 1518 1518 1518 1519 1520 1522 1523 1524 1526 1526 1526 1526 1526 1526 1525 1524 1521 1519 1523 1525 1521 1522 1523 1521 1522 1523 1524 1527 1525 1525 1525 1524 1525 1524 1527 1533 1531 1527 1527 1526 1527 1529 1530 1531 1533 1534 1536 1538 1540 1542 1543 1544 1546
1535 1533 1532 1530 1529 1528 1527 1526 1525 1524 1523 1522 1521 1520 1519 1519 1518 1518 1517 1517 1517 1517 1517 1517 1517 1516 1515 1515 1516 1517 1517 1517 1518 1518 1518 1518 1518 1519 1519 1520 1521 1521 1522 1524 1525 1526 1526 1526 1526 1525 1524 1522 1520 1523 1522 1520 1521 1521 1522 1522 1522 1527 1530 1525 1524 1524 1524 1526 1523 1526 1534 1532 1528 1526 1526 1527 1528 1529 1530 1531 1533 1535 1537 1539 1541 1543 1544 1545
1534 1533 1531 1530 1528 1527 1526 1525 1524 1523 1523 1522 1521 1520 1519 1519 1518 1518 1518 1517 1517 1517 1517 1516 1516 1516 1515 1515 1516 1517 1517 1518 1518 1518 1519 1519 1520 1520 1520 1520 1521 1521 1522 1524 1525 1525 1526 1526 1526 1523 1523 1523 1522 1522 1521 1520 1519 1519 1526 1528 1523 1527 1530 1525 1524 1524 1524 1526 1522 1527 1536 1535 1531 1526 1525 1527 1527 1528 1529 1530 1532 1534 1536 1538 1540 1542 1543 1544
1534 1533 1531 1529 1528 1526 1525 1524 1523 1523 1522 1521 1520 1519 1518 1518 1517 1517 1517 1517 1517 1517 1516 1516 1516 1516 1514 1514 1516 1516 1517 1518 1518 1519 1519 1519 1521 1521 1521 1521 1521 1522 1523 1524 1524 1525 1526 1526 1525 1523 1522 1522 1521 1522 1523 1524 1521 1520 1526 1530 1527 1526 1526 1525 1526 1523 1523 1525 1522 1527 1533 1532 1531 1528 1525 1527 1528 1528 1529 1530 1532 1533 1536 1537 1539 1540 1542 1543
1534 1532 1531 1529 1528 1526 1524 1523 1523 1522 1521 1521 1520 1519 1518 1517 1516 1516 1516 1516 1516 1515 1515 1515 1515 1515 1514 1514 1516 1516 1516 1517 1517 1518 1519 1520 1521 1521 1521 1522 1523 1523 1523 1525 1525 1526 1526 1525 1525 1523 1520 1520 1519 1521 1527 1527 1523 1521 1524 1526 1527 1526 1524 1526 1528 1525 1523 1525 1523 1524 1526 1525 1527 1527 1525 1527 1528 1528 1528 1529 1531 1532 1535 1536 1538 1539 1540 1542
1533 1532 1530 1529 1527 1526 1524 1523 1522 1521 1521 1520 1519 1519 1518 1516 1515 1515 1516 1516 1515 1514 1514 1514 1514 1516 1515 1514 1514 1515 1516 1516 1516 1518 1519 1519 1520 1521 1522 1522 1523 1524 1524 1525 1525 1525 1525 1523 1522 1521 1519 1519 1520 1522 1528 1528 1523 1524 1526 1526 1526 1523 1523 1526 1528 1526 1523 1525 1525 1524 1524 1523 1522 1523 1524 1526 1528 1528 1528 1529 1530 1531 1534 1536 1537 1538 1539 1541
1533 1531 1530 1528 1526 1525 1524 1522 1521 1521 1520 1520 1519 1518 1517 1516 1515 1514 1515 1514 1514 1512 1512 1512 1512 1514 1514 1512 1513 1515 1515 1515 1516 1518 1519 1519 1520 1522 1522 1523 1523 1523 1523 1524 1523 1523 1523 1522 1523 1524 1522 1520 1520 1519 1521 1523 1523 1525 1526 1526 1528 1525 1523 1525 1527 1525 1524 1526 1525 1523 1524 1523 1521 1523 1524 1526 1527 1529 1529 1528 1530 1531 1533 1535 1536 1537 1538 1540
1532 1530 1529 1528 1526 1524 1523 1522 1521 1520 1520 1519 1519 1518 1516 1515 1513 1512 1513 1513 1511 1510 1510 1511 1511 1511 1511 1511 1513 1514 1514 1515 1516 1518 1519 1519 1521 1522 1522 1523 1523 1522 1521 1520 1521 1521 1522 1524 1523 1521 1518 1515 1516 1517 1517 1518 1520 1523 1525 1525 1526 1525 1525 1526 1527 1524 1524 1527 1525 1522 1524 1523 1522 1521 1522 1525 1527 1528 1529 1528 1529 1531 1533 1534 1534 1536 1537 1539
1531 1530 1528 1527 1525 1524 1522 1521 1520 1519 1519 1519 1519 1518 1517 1516 1514 1514 1513 1511 1510 1510 1509 1510 1510 1510 1510 1511 1513 1513 1514 1515 1516 1518 1518 1519 1520 1521 1521 1521 1520 1520 1519 1517 1519 1520 1523 1526 1520 1513 1513 1514 1515 1516 1516 1518 1520 1523 1524 1524 1523 1522 1525 1526 1527 1524 1524 1527 1524 1521 1525 1524 1522 1521 1521 1524 1525 1526 1527 1527 1528 1530 1532 1533 1533 1535 1536 1538
1530 1528 1527 1526 1524 1523 1521 1520 1519 1519 1518 1518 1518 1518 1518 1518 1517 1516 1515 1511 1508 1508 1508 1508 1508 1509 1509 1510 1511 1512 1513 1513 1515 1517 1517 1519 1520 1518 1518 1519 1518 1517 1517 1518 1521 1523 1525 1523 1514 1509 1512 1515 1516 1516 1517 1519 1521 1521 1521 1523 1522 1519 1523 1527 1526 1524 1524 1527 1524 1521 1524 1522 1519 1519 1520 1522 1523 1524 1525 1525 1527 1528 1530 1531 1532 1534 1535 1537
1528 1526 1526 1525 1523 1522 1520 1519 1518 1517 1518 1517 1517 1518 1518 1517 1516 1516 1515 1511 1506 1505 1506 1506 1506 1507 1509 1509 1510 1511 1511 1510 1512 1515 1516 1518 1518 1517 1517 1517 1516 1516 1518 1520 1520 1523 1524 1517 1509 1507 1511 1516 1517 1518 1518 1519 1520 1520 1519 1521 1519 1518 1523 1527 1526 1525 1524 1525 1525 1523 1522 1519 1517 1519 1519 1520 1522 1523 1525 1525 1526 1527 1528 1529 1530 1532 1534 1535
1526 1525 1524 1522 1522 1521 1519 1518 1517 1516 1517 1516 1516 1517 1516 1516 1516 1515 1514 1510 1505 1503 1503 1504 1505 1506 1507 1507 1508 1510 1510 1509 1509 1512 1514 1516 1516 1516 1516 1514 1515 1517 1518 1517 1517 1519 1517 1510 1508 1511 1513 1515 1518 1518 1518 1520 1519 1516 1516 1518 1517 1517 1520 1522 1523 1525 1524 1523 1524 1523 1520 1515 1515 1520 1519 1518 1521 1523 1524 1525 1526 1527 1527 1528 1529 1530 1532 1534
1524 1523 1522 1521 1520 1519 1518 1517 1516 1516 1516 1515 1516 1515 1515 1516 1515 1515 1514 1509 1505 1501 1501 1503 1503 1504 1505 1506 1507 1508 1508 1509 1509 1510 1512 1514 1515 1515 1515 1514 1516 1517 1516 1515 1517 1518 1513 1508 1510 1514 1515 1515 1517 1517 1515 1517 1517 1513 1511 1512 1513 1514 1517 1520 1522 1524 1524 1526 1525 1524 1526 1519 1513 1517 1518 1516 1519 1522 1522 1523 1523 1525 1526 1527 1528 1529 1531 1532
1523 1521 1520 1519 1518 1517 1518 1516 1515 1516 1515 1515 1515 1514 1515 1515 1514 1515 1513 1510 1504 1498 1499 1502 1502 1502 1503 1504 1506 1507 1509 1508 1507 1509 1511 1513 1514 1514 1515 1514 1514 1514 1513 1514 1516 1515 1510 1509 1511 1514 1515 1515 1517 1515 1511 1512 1516 1514 1509 1508 1510 1512 1516 1519 1521 1523 1524 1527 1525 1523 1530 1526 1514 1514 1516 1516 1520 1521 1521 1521 1520 1522 1524 1525 1527 1528 1529 1531
1522 1520 1518 1517 1516 1516 1516 1516 1515 1515 1514 1514 1513 1513 1515 1514 1514 1514 1513 1514 1507 1496 1497 1500 1500 1501 1501 1503 1504 1506 1509 1506 1505 1509 1510 1512 1513 1513 1514 1512 1513 1514 1511 1514 1518 1513 1508 1511 1513 1513 1514 1515 1515 1513 1507 1508 1515 1515 1509 1507 1511 1513 1517 1519 1519 1521 1520 1521 1523 1520 1526 1528 1518 1514 1515 1516 1522 1523 1520 1520 1518 1519 1521 1522 1524 1526 1527 1529
1520 1518 1516 1515 1515 1514 1514 1514 1514 1513 1513 1513 1511 1513 1514 1513 1515 1513 1516 1522 1509 1493 1494 1497 1498 1500 1500 1503 1503 1503 1505 1503 1505 1508 1509 1511 1512 1512 1512 1509 1509 1511 1510 1515 1518 1509 1505 1511 1512 1512 1514 1513 1510 1507 1504 1507 1513 1513 1508 1507 1510 1512 1515 1517 1517 1519 1518 1521 1526 1520 1521 1528 1523 1516 1517 1520 1524 1527 1523 1520 1518 1517 1519 1520 1522 1524 1525 1527
1518 1516 1514 1513 1513 1513 1512 1512 1512 1511 1511 1510 1511 1513 1511 1514 1515 1510 1517 1522 1503 1490 1494 1495 1498 1500 1499 1502 1502 1501 1502 1501 1503 1506 1507 1510 1511 1511 1511 1508 1507 1508 1509 1512 1512 1507 1505 1509 1509 1509 1512 1509 1505 1505 1505 1506 1509 1509 1507 1507 1510 1512 1514 1516 1516 1516 1519 1526 1530 1522 1520 1529 1526 1516 1519 1525 1525 1525 1523 1518 1516 1516 1518 1520 1520 1522 1523 1525
1516 1514 1512 1511 1510 1510 1510 1510 1510 1510 1509 1509 1511 1512 1512 1515 1513 1515 1526 1517 1495 1491 1494 1494 1496 1497 1498 1500 1501 1500 1500 1500 1502 1505 1507 1508 1510 1510 1509 1509 1508 1508 1509 1509 1509 1506 1504 1507 1508 1507 1508 1506 1505 1507 1506 1505 1506 1506 1508 1510 1513 1514 1514 1516 1515 1514 1524 1532 1530 1523 1519 1527 1529 1515 1509 1516 1515 1513 1515 1515 1516 1516 1516 1518 1519 1520 1522 1523
1514 1512 1510 1508 1508 1508 1508 1508 1508 1508 1508 1509 1510 1511 1513 1512 1511 1520 1523 1504 1490 1493 1493 1493 1495 1494 1496 1498 1498 1499 1499 1499 1500 1503 1506 1506 1508 1510 1509 1511 1511 1511 1511 1510 1508 1504 1503 1507 1507 1505 1506 1505 1506 1507 1507 1505 1504 1507 1509 1513 1519 1522 1521 1523 1523 1522 1533 1537 1530 1523 1519 1525 1533 1519 1503 1504 1504 1503 1507 1511 1513 1514 1514 1516 1517 1519 1520 1521
1511 1510 1508 1506 1506 1505 1506 1507 1506 1506 1508 1508 1510 1511 1511 1513 1516 1516 1507 1494 1495 1495 1489 1491 1492 1491 1494 1494 1494 1496 1497 1498 1498 1499 1501 1503 1505 1506 1507 1507 1508 1513 1514 1509 1505 1503 1502 1503 1502 1503 1505 1504 1506 1509 1511 1508 1505 1508 1510 1516 1526 1531 1536 1539 1533 1529 1532 1532 1526 1522 1523 1526 1525 1513 1501 1501 1501 1501 1503 1505 1508 1510 1512 1514 1515 1517 1519 1520
1508 1506 1504 1504 1503 1503 1503 1504 1504 1505 1507 1507 1510 1509 1509 1517 1516 1503 1493 1492 1494 1489 1485 1488 1489 1489 1493 1494 1494 1493 1494 1497 1496 1496 1497 1498 1501 1502 1501 1499 1499 1506 1509 1505 1504 1505 1505 1504 1502 1506 1506 1502 1502 1508 1515 1514 1510 1512 1513 1520 1527 1532 1544 1547 1533 1528 1529 1526 1522 1521 1526 1526 1516 1506 1501 1499 1499 1500 1502 1504 1506 1508 1510 1512 1514 1516 1518 1519
1505 1503 1501 1501 1500 1500 1500 1501 1502 1503 1505 1507 1508 1507 1511 1517 1507 1493 1490 1489 1487 1487 1486 1488 1489 1491 1493 1493 1491 1490 1494 1496 1493 1495 1497 1498 1502 1501 1499 1498 1497 1500 1503 1504 1504 1504 1509 1510 1503 1503 1502 1499 1499 1501 1505 1506 1508 1510 1506 1512 1518 1519 1533 1540 1531 1530 1530 1524 1524 1526 1527 1521 1513 1507 1500 1497 1499 1501 1503 1505 1506 1508 1509 1511 1513 1515 1517 1518
1503 1500 1499 1498 1498 1498 1498 1499 1500 1501 1504 1506 1505 1506 1511 1509 1497 1490 1490 1484 1483 1488 1488 1487 1490 1493 1493 1491 1488 1486 1491 1494 1491 1494 1497 1497 1500 1498 1495 1495 1496 1498 1502 1506 1505 1502 1509 1507 1496 1496 1497 1496 1499 1498 1495 1500 1508 1508 1503 1509 1514 1509 1515 1526 1526 1525 1525 1525 1524 1523 1519 1507 1500 1499 1494 1496 1500 1499 1502 1505 1505 1508 1508 1510 1512 1513 1514 1517
1501 1498 1497 1496 1497 1496 1496 1497 1498 1500 1502 1503 1503 1503 1501 1495 1489 1487 1485 1482 1485 1487 1488 1491 1491 1492 1492 1490 1490 1489 1488 1490 1490 1493 1495 1493 1493 1492 1491 1489 1490 1495 1498 1501 1502 1501 1507 1505 1495 1497 1499 1495 1498 1497 1495 1502 1508 1508 1509 1513 1509 1502 1507 1520 1526 1521 1524 1532 1523 1514 1511 1499 1495 1498 1496 1497 1500 1498 1501 1503 1503 1506 1507 1508 1510 1511 1512 1515
1499 1497 1496 1496 1495 1494 1494 1495 1496 1499 1500 1500 1500 1498 1491 1486 1485 1484 1484 1485 1486 1485 1488 1492 1490 1489 1490 1487 1488 1489 1488 1490 1491 1492 1493 1492 1491 1488 1488 1488 1486 1489 1491 1492 1495 1495 1499 1502 1496 1497 1501 1498 1497 1498 1497 1498 1502 1507 1511 1508 1502 1504 1508 1516 1527 1527 1529 1533 1519 1510 1513 1507 1503 1506 1501 1498 1501 1500 1500 1501 1502 1505 1506 1507 1508 1509 1512 1513
1497 1496 1496 1495 1494 1492 1492 1493 1494 1497 1499 1498 1497 1493 1488 1485 1484 1484 1485 1486 1486 1486 1489 1490 1486 1485 1487 1486 1484 1484 1488 1491 1491 1491 1491 1491 1490 1484 1484 1487 1485 1485 1486 1488 1493 1492 1494 1503 1501 1495 1499 1499 1496 1500 1504 1500 1498 1502 1504 1499 1503 1515 1517 1516 1527 1532 1533 1532 1518 1510 1514 1510 1506 1504 1499 1500 1502 1501 1501 1502 1502 1503 1504 1506 1507 1509 1511 1512
1496 1495 1495 1494 1493 1491 1491 1491 1494 1497 1497 1497 1495 1491 1487 1486 1484 1485 1487 1487 1486 1488 1488 1486 1485 1485 1485 1484 1481 1481 1486 1488 1487 1489 1490 1489 1488 1482 1480 1483 1483 1484 1484 1486 1491 1491 1492 1504 1507 1497 1495 1498 1498 1502 1507 1504 1501 1501 1501 1499 1502 1509 1511 1513 1518 1521 1525 1528 1523 1519 1515 1506 1500 1496 1497 1502 1502 1501 1502 1502 1502 1502 1503 1505 1506 1508 1510 1512
1496 1495 1494 1494 1493 1492 1491 1492 1495 1496 1494 1492 1490 1487 1486 1485 1485 1485 1487 1487 1486 1487 1487 1485 1485 1487 1485 1483 1482 1482 1484 1484 1483 1485 1486 1485 1486 1482 1478 1479 1481 1483 1484 1484 1488 1490 1492 1501 1506 1501 1496 1499 1501 1501 1501 1500 1501 1503 1506 1506 1506 1505 1505 1508 1509 1506 1513 1522 1524 1528 1522 1505 1497 1496 1497 1501 1502 1500 1502 1501 1502 1503 1504 1505 1507 1508 1510 1511
1497 1494 1493 1494 1493 1492 1494 1494 1494 1493 1490 1488 1487 1486 1486 1486 1485 1485 1487 1488 1486 1486 1486 1485 1485 1486 1485 1484 1483 1481 1483 1484 1483 1483 1483 1482 1483 1482 1478 1476 1479 1482 1485 1488 1488 1489 1492 1496 1501 1502 1500 1500 1498 1494 1493 1495 1495 1498 1501 1500 1501 1504 1507 1515 1516 1505 1506 1515 1517 1525 1525 1508 1498 1498 1497 1499 1501 1500 1501 1501 1501 1503 1505 1506 1507 1508 1510 1510
1497 1493 1492 1494 1493 1493 1494 1493 1490 1490 1489 1487 1486 1486 1487 1487 1486 1485 1485 1486 1486 1485 1485 1486 1485 1485 1485 1484 1482 1481 1483 1483 1481 1482 1481 1479 1478 1477 1475 1475 1478 1479 1482 1487 1486 1484 1487 1491 1496 1500 1498 1496 1495 1493 1494 1495 1493 1494 1496 1493 1494 1499 1501 1512 1519 1509 1507 1512 1511 1518 1525 1510 1497 1496 1497 1500 1501 1501 1502 1502 1502 1504 1506 1507 1507 1508 1509 1510
1498 1495 1494 1494 1493 1493 1494 1490 1489 1490 1488 1485 1485 1486 1486 1486 1486 1485 1484 1485 1485 1484 1485 1485 1484 1484 1483 1481 1481 1482 1482 1482 1481 1479 1478 1477 1474 1473 1473 1476 1478 1477 1479 1483 1484 1484 1487 1491 1497 1502 1499 1495 1494 1493 1493 1494 1495 1497 1496 1493 1495 1498 1496 1501 1506 1506 1510 1511 1510 1521 1525 1512 1500 1497 1497 1501 1502 1502 1504 1503 1503 1505 1505 1507 1508 1508 1509 1510
1499 1497 1495 1494 1493 1493 1492 1488 1487 1487 1486 1485 1486 1486 1486 1486 1485 1484 1484 1483 1483 1483 1484 1484 1482 1482 1481 1479 1481 1481 1481 1483 1481 1476 1476 1477 1474 1473 1474 1476 1477 1476 1476 1478 1480 1484 1490 1493 1499 1508 1512 1509 1507 1505 1502 1500 1498 1498 1495 1494 1497 1497 1498 1501 1500 1505 1514 1509 1506 1519 1519 1506 1501 1499 1497 1499 1500 1501 1502 1502 1504 1505 1505 1506 1507 1508 1509 1509
1498 1495 1494 1494 1493 1493 1491 1487 1486 1485 1484 1485 1487 1485 1484 1484 1483 1483 1483 1481 1481 1482 1482 1481 1480 1480 1479 1479 1481 1480 1478 1481 1480 1476 1475 1475 1473 1473 1475 1475 1476 1474 1474 1475 1475 1478 1487 1491 1496 1506 1516 1520 1520 1515 1508 1501 1497 1495 1494 1497 1499 1497 1500 1505 1503 1510 1518 1510 1507 1517 1512 1500 1498 1497 1497 1499 1499 1499 1500 1501 1503 1504 1505 1506 1506 1507 1508 1508
1498 1495 1492 1492 1492 1492 1490 1489 1489 1486 1484 1486 1486 1484 1484 1483 1481 1482 1483 1481 1481 1481 1481 1480 1478 1479 1480 1480 1482 1481 1478 1477 1478 1477 1476 1474 1472 1472 1474 1475 1476 1475 1475 1477 1475 1476 1484 1488 1490 1496 1502 1504 1506 1502 1496 1493 1494 1496 1496 1497 1499 1498 1498 1502 1505 1510 1512 1508 1509 1510 1504 1502 1501 1497 1497 1499 1498 1499 1499 1499 1502 1503 1504 1506 1506 1507 1507 1507
1500 1496 1495 1494 1493 1490 1489 1489 1489 1487 1486 1487 1486 1483 1484 1482 1480 1482 1482 1481 1481 1481 1480 1479 1478 1479 1480 1479 1481 1480 1477 1475 1476 1477 1476 1473 1470 1472 1475 1476 1476 1476 1477 1477 1475 1477 1485 1490 1489 1492 1493 1491 1492 1492 1491 1492 1494 1495 1496 1497 1498 1499 1499 1502 1505 1504 1504 1510 1512 1502 1499 1507 1505 1497 1496 1497 1497 1498 1497 1498 1501 1502 1503 1505 1506 1507 1507 1507
1500 1499 1498 1498 1496 1491 1488 1489 1489 1488 1487 1487 1485 1484 1484 1483 1481 1482 1481 1480 1480 1480 1480 1479 1478 1478 1477 1478 1480 1479 1477 1477 1478 1477 1475 1473 1472 1473 1475 1475 1475 1475 1476 1476 1475 1475 1482 1488 1487 1488 1491 1490 1490 1491 1490 1492 1493 1493 1495 1497 1497 1499 1501 1503 1502 1498 1500 1509 1509 1500 1501 1507 1503 1496 1495 1496 1496 1497 1496 1498 1500 1501 1503 1504 1505 1506 1506 1506
1502 1500 1499 1499 1497 1493 1491 1491 1491 1489 1487 1487 1486 1484 1484 1483 1481 1481 1480 1480 1480 1478 1479 1479 1478 1477 1476 1477 1479 1479 1477 1478 1479 1475 1472 1473 1473 1473 1475 1477 1476 1474 1474 1475 1475 1475 1479 1486 1486 1487 1491 1492 1492 1492 1492 1492 1494 1494 1494 1495 1496 1497 1498 1500 1499 1496 1498 1502 1500 1498 1502 1503 1497 1495 1495 1495 1497 1496 1497 1499 1500 1501 1502 1503 1505 1505 1505 1505
1504 1502 1501 1500 1497 1493 1493 1492 1491 1489 1486 1486 1486 1484 1483 1482 1481 1481 1480 1481 1480 1478 1478 1479 1478 1476 1476 1476 1478 1479 1477 1478 1479 1476 1473 1474 1473 1471 1473 1473 1472 1473 1474 1473 1475 1476 1480 1488 1488 1486 1492 1497 1494 1492 1493 1494 1495 1496 1495 1494 1494 1497 1497 1498 1498 1496 1498 1501 1498 1499 1504 1501 1494 1492 1494 1496 1497 1497 1497 1498 1499 1500 1501 1503 1504 1504 1504 1505
1504 1503 1503 1502 1497 1492 1492 1491 1490 1489 1486 1484 1484 1483 1482 1482 1482 1482 1481 1479 1480 1479 1478 1479 1479 1476 1475 1475 1477 1477 1476 1476 1477 1475 1473 1474 1472 1471 1471 1468 1468 1473 1474 1473 1475 1475 1480 1488 1488 1487 1495 1498 1494 1494 1494 1493 1494 1498 1498 1496 1495 1496 1496 1496 1495 1495 1497 1499 1499 1502 1504 1499 1492 1492 1494 1495 1496 1496 1496 1497 1498 1499 1501 1502 1503 1503 1504 1504
1504 1504 1504 1504 1498 1492 1491 1489 1489 1489 1485 1482 1482 1483 1483 1483 1482 1483 1482 1479 1478 1479 1479 1479 1479 1476 1475 1475 1476 1477 1476 1476 1475 1474 1473 1473 1471 1470 1470 1469 1468 1470 1471 1473 1475 1474 1477 1485 1488 1490 1495 1494 1493 1495 1494 1495 1503 1505 1498 1492 1492 1492 1492 1493 1492 1492 1493 1495 1497 1500 1497 1492 1490 1491 1493 1494 1495 1496 1496 1496 1498 1499 1500 1502 1502 1502 1503 1504